GFSNIL_prec_pwat_120.txt.gz
Precipitable_Water
0.55 0.57 0.57 0.55 0.55 0.51 0.54 0.72 0.95 1.09 1.23 1.21 1.25 1.34 1.29 1.28 1.28 1.26 1.13 1.10 1.09 1.09
0.53 0.55 0.57 0.60 0.61 0.58 0.55 0.56 0.74 1.00 1.10 1.28 1.26 1.26 1.30 1.15 1.11 1.18 1.18 1.13 1.14 1.09
0.59 0.63 0.66 0.68 0.65 0.66 0.60 0.58 0.64 0.81 0.89 1.11 1.40 1.20 1.25 1.22 1.18 1.12 1.14 1.21 1.15 1.15
0.68 0.74 0.82 0.81 0.77 0.77 0.77 0.66 0.65 0.77 0.85 0.73 1.24 1.30 1.17 1.14 1.15 1.12 1.08 1.17 1.20 1.13
0.76 0.80 0.77 0.68 0.68 0.78 0.78 0.81 0.90 0.91 0.78 0.74 1.29 1.35 1.17 0.99 1.06 1.08 1.07 1.09 1.16 1.10
0.77 0.78 0.67 0.61 0.67 0.73 0.72 0.68 0.79 0.89 1.03 1.18 1.28 1.30 1.16 1.10 1.15 1.10 1.13 1.16 1.20 1.16
0.75 0.75 0.74 0.73 0.71 0.71 0.73 0.77 0.84 0.87 0.94 1.04 1.15 1.23 1.20 1.23 1.18 1.14 1.17 1.25 1.25 1.24
0.73 0.75 0.78 0.79 0.76 0.72 0.73 0.77 0.91 0.96 1.04 1.08 1.10 1.18 1.19 1.18 1.11 1.08 1.11 1.13 1.13 1.14
0.72 0.74 0.77 0.79 0.80 0.84 0.77 0.78 0.91 0.95 0.92 0.93 1.04 1.07 1.16 1.08 1.07 1.07 1.02 1.02 1.03 1.05
0.69 0.70 0.74 0.76 0.76 0.80 0.79 0.82 0.84 0.85 0.89 0.93 0.95 0.98 1.00 1.08 1.02 1.01 0.99 0.98 0.97 1.02
0.65 0.67 0.69 0.71 0.73 0.74 0.73 0.77 0.79 0.80 0.82 0.84 0.86 0.84 0.91 1.00 0.96 0.91 0.97 0.97 1.01 1.00
0.43 0.49 0.55 0.62 0.68 0.71 0.70 0.73 0.75 0.75 0.76 0.75 0.79 0.81 0.86 0.85 0.84 0.84 0.89 0.87 0.90 0.92
0.23 0.25 0.30 0.37 0.39 0.43 0.47 0.54 0.59 0.64 0.67 0.71 0.72 0.75 0.80 0.78 0.81 0.79 0.81 0.81 0.83 0.83
0.17 0.18 0.20 0.22 0.24 0.26 0.27 0.27 0.29 0.33 0.36 0.40 0.46 0.52 0.59 0.67 0.69 0.71 0.72 0.72 0.75 0.77

GFSNIL_prec_pwat_123.txt.gz
Precipitable_Water
0.53 0.50 0.50 0.50 0.51 0.52 0.52 0.50 0.50 0.73 0.92 1.04 1.17 1.17 1.24 1.34 1.43 1.55 1.42 1.30 1.34 1.29
0.58 0.55 0.52 0.52 0.53 0.56 0.58 0.56 0.55 0.54 0.62 0.89 0.96 1.05 1.19 1.19 1.25 1.36 1.39 1.29 1.27 1.45
0.63 0.63 0.61 0.57 0.54 0.56 0.60 0.63 0.62 0.58 0.55 0.60 0.82 0.89 1.02 1.15 1.25 1.30 1.38 1.37 1.39 1.36
0.65 0.66 0.65 0.63 0.65 0.68 0.70 0.74 0.75 0.70 0.66 0.60 0.67 0.86 0.85 0.95 1.17 1.38 1.40 1.44 1.27 1.13
0.66 0.67 0.68 0.70 0.75 0.80 0.79 0.85 0.80 0.79 0.78 0.73 0.73 0.74 0.79 0.70 0.72 0.97 1.20 1.31 1.20 1.09
0.68 0.70 0.73 0.75 0.70 0.67 0.67 0.68 0.71 0.73 0.75 0.69 0.72 0.64 0.69 0.71 0.74 0.90 1.11 1.29 1.22 1.12
0.66 0.71 0.75 0.73 0.71 0.68 0.69 0.68 0.66 0.65 0.68 0.68 0.65 0.71 0.77 0.78 0.97 1.01 1.12 1.25 1.28 1.16
0.65 0.70 0.72 0.72 0.73 0.72 0.72 0.72 0.74 0.73 0.67 0.69 0.74 0.78 0.86 0.94 0.95 1.02 1.08 1.15 1.08 1.02
0.65 0.68 0.68 0.71 0.72 0.75 0.76 0.77 0.77 0.76 0.75 0.76 0.81 0.85 0.93 0.94 0.95 1.06 0.98 1.05 1.04 0.97
0.62 0.63 0.65 0.67 0.69 0.71 0.71 0.71 0.74 0.74 0.77 0.78 0.81 0.85 0.87 0.89 0.90 0.93 0.96 0.98 0.96 1.02
0.40 0.45 0.51 0.57 0.61 0.64 0.66 0.66 0.67 0.69 0.72 0.75 0.76 0.82 0.84 0.86 0.86 0.86 0.88 0.91 0.94 0.90
0.22 0.26 0.29 0.31 0.34 0.40 0.44 0.48 0.53 0.57 0.61 0.65 0.69 0.75 0.76 0.79 0.79 0.80 0.80 0.86 0.84 0.85
0.16 0.16 0.19 0.23 0.24 0.26 0.26 0.28 0.29 0.30 0.34 0.39 0.42 0.50 0.54 0.61 0.65 0.69 0.70 0.74 0.76 0.78
0.16 0.15 0.14 0.15 0.17 0.18 0.19 0.20 0.21 0.23 0.25 0.28 0.31 0.33 0.36 0.37 0.39 0.43 0.46 0.49 0.54 0.60

GFSNIL_prec_pwat_126.txt.gz
Precipitable_Water
0.55 0.54 0.53 0.52 0.52 0.52 0.50 0.50 0.52 0.52 0.51 0.57 0.69 0.78 0.88 1.13 1.31 1.39 1.45 1.48 1.52 1.46
0.59 0.60 0.60 0.61 0.60 0.58 0.57 0.56 0.57 0.57 0.55 0.54 0.58 0.72 0.80 0.90 1.09 1.24 1.32 1.34 1.36 1.28
0.62 0.63 0.62 0.61 0.60 0.61 0.60 0.59 0.57 0.57 0.59 0.58 0.57 0.59 0.69 0.78 0.91 1.10 1.14 1.15 1.14 1.14
0.65 0.66 0.64 0.62 0.61 0.60 0.59 0.57 0.58 0.63 0.64 0.65 0.65 0.63 0.60 0.68 0.87 0.89 0.94 1.02 1.09 1.15
0.64 0.66 0.64 0.65 0.66 0.65 0.62 0.63 0.66 0.69 0.70 0.67 0.67 0.70 0.68 0.59 0.70 0.88 0.85 0.92 1.02 1.13
0.64 0.64 0.65 0.66 0.70 0.69 0.67 0.64 0.63 0.65 0.66 0.67 0.70 0.72 0.75 0.71 0.68 0.75 0.89 0.94 0.90 0.93
0.62 0.65 0.68 0.69 0.69 0.66 0.66 0.64 0.64 0.65 0.63 0.66 0.69 0.70 0.76 0.73 0.64 0.63 0.65 0.73 0.76 0.72
0.61 0.64 0.67 0.69 0.71 0.71 0.69 0.69 0.69 0.70 0.70 0.66 0.66 0.70 0.70 0.70 0.65 0.63 0.63 0.72 0.72 0.73
0.60 0.62 0.63 0.65 0.66 0.67 0.67 0.68 0.70 0.72 0.73 0.73 0.69 0.64 0.67 0.67 0.63 0.63 0.68 0.68 0.74 0.82
0.43 0.51 0.55 0.58 0.60 0.60 0.62 0.65 0.64 0.65 0.68 0.69 0.72 0.75 0.72 0.69 0.68 0.68 0.66 0.65 0.72 0.79
0.21 0.22 0.25 0.28 0.34 0.39 0.46 0.51 0.53 0.57 0.62 0.65 0.68 0.71 0.72 0.74 0.74 0.75 0.75 0.80 0.77 0.78
0.16 0.16 0.17 0.18 0.20 0.21 0.23 0.24 0.26 0.30 0.35 0.43 0.51 0.57 0.62 0.68 0.70 0.70 0.73 0.75 0.74 0.79
0.15 0.14 0.14 0.15 0.16 0.17 0.18 0.18 0.20 0.21 0.23 0.26 0.27 0.31 0.34 0.39 0.43 0.48 0.55 0.61 0.65 0.70
0.16 0.15 0.15 0.14 0.14 0.15 0.15 0.16 0.16 0.17 0.19 0.20 0.22 0.23 0.25 0.26 0.27 0.29 0.32 0.35 0.40 0.45

GFSNIL_prec_pwat_132.txt.gz
Precipitable_Water
0.48 0.51 0.52 0.53 0.54 0.54 0.54 0.55 0.59 0.60 0.59 0.58 0.57 0.53 0.51 0.51 0.55 0.70 0.80 0.85 1.05 1.14
0.52 0.54 0.57 0.60 0.58 0.57 0.58 0.59 0.61 0.62 0.62 0.63 0.61 0.58 0.55 0.53 0.53 0.68 0.73 0.89 0.88 1.01
0.53 0.59 0.61 0.62 0.61 0.61 0.62 0.62 0.64 0.64 0.64 0.66 0.68 0.65 0.60 0.57 0.59 0.58 0.69 0.77 0.89 1.03
0.56 0.60 0.61 0.62 0.63 0.63 0.65 0.65 0.65 0.66 0.67 0.68 0.68 0.67 0.65 0.63 0.65 0.63 0.63 0.70 0.76 0.81
0.57 0.59 0.59 0.60 0.62 0.63 0.62 0.64 0.63 0.63 0.64 0.65 0.65 0.66 0.65 0.65 0.68 0.68 0.68 0.69 0.68 0.76
0.56 0.56 0.57 0.58 0.59 0.61 0.61 0.61 0.61 0.60 0.60 0.59 0.60 0.61 0.63 0.64 0.63 0.62 0.63 0.65 0.66 0.67
0.54 0.55 0.56 0.57 0.59 0.61 0.63 0.64 0.65 0.63 0.62 0.64 0.65 0.64 0.63 0.64 0.64 0.65 0.66 0.66 0.65 0.65
0.38 0.44 0.48 0.50 0.55 0.59 0.59 0.60 0.63 0.64 0.66 0.69 0.69 0.67 0.68 0.69 0.65 0.65 0.64 0.66 0.69 0.71
0.20 0.21 0.22 0.25 0.30 0.37 0.43 0.48 0.52 0.56 0.58 0.61 0.64 0.67 0.70 0.70 0.66 0.63 0.63 0.62 0.66 0.71
0.16 0.16 0.18 0.19 0.20 0.20 0.21 0.24 0.27 0.34 0.41 0.46 0.54 0.58 0.60 0.63 0.64 0.63 0.60 0.59 0.59 0.62
0.15 0.14 0.15 0.15 0.15 0.16 0.17 0.18 0.18 0.19 0.20 0.23 0.26 0.33 0.45 0.52 0.54 0.58 0.60 0.60 0.59 0.58
0.14 0.14 0.14 0.13 0.14 0.14 0.14 0.14 0.15 0.16 0.16 0.16 0.18 0.19 0.19 0.20 0.25 0.34 0.43 0.51 0.56 0.56
0.14 0.13 0.13 0.14 0.14 0.14 0.14 0.13 0.13 0.13 0.14 0.14 0.14 0.15 0.15 0.14 0.14 0.15 0.17 0.20 0.24 0.34
0.14 0.14 0.14 0.14 0.14 0.14 0.14 0.12 0.12 0.12 0.13 0.13 0.14 0.14 0.13 0.13 0.12 0.13 0.13 0.13 0.15 0.18